Location: Unspecified
(0.0000°N, 0.0000°E)
Time: 08:37:15
(UTC+00:00)

Vanguard 2 - Pass Details

Date: 20 October 2021
Orbit: 554 x 2936 km, 32.9° (Epoch: 06 December)

Event Time Altitude Azimuth Distance (km) Brightness Sun altitude
Rises 02:19:35 0° 273° (W) 6,078 - -50.2°
Reaches altitude 10° 02:26:31 10° 293° (WNW) 4,538 - -48.5°
Maximum altitude 02:32:35 15° 323° (NW) 3,579 - -47.0°
Drops below altitude 10° 02:37:27 10° 356° (N) 3,481 - -45.9°
Sets 02:41:36 0° 19° (NNE) 4,005 - -44.9°
